This is the latest recevied weather packets stored in our database for station/object WX5KDM. If no packets are shown the sender has not sent any weather packets the latest 10 day(s).
| Time | Temp. | Humidity | Pressure | Rain* | Wind** | Luminosity | Snow |
|---|---|---|---|---|---|---|---|
| 1777499204 | 21.67° C | 80% | 1012.1 hPa | 0 mm | - | - | - |
| 1777498901 | 21.67° C | 80% | 1012 hPa | 0 mm | - | - | - |
| 1777498597 | 21.67° C | 80% | 1012 hPa | 0 mm | - | - | - |
| 1777498293 | 22.22° C | 80% | 1012.3 hPa | 0 mm | - | - | - |
| 1777497992 | 22.22° C | 79% | 1012.5 hPa | 0 mm | - | - | - |
| 1777497688 | 22.22° C | 79% | 1012.5 hPa | 0 mm | - | - | - |
| 1777497385 | 22.22° C | 79% | 1012.4 hPa | 0 mm | - | - | - |
| 1777497080 | 22.22° C | 79% | 1012.6 hPa | 0 mm | - | - | - |
| 1777496777 | 22.22° C | 78% | 1012.6 hPa | 0 mm | - | - | - |
| 1777496474 | 22.22° C | 78% | 1012.9 hPa | 0 mm | - | - | - |
| 1777496170 | 22.78° C | 79% | 1012.8 hPa | 0 mm | - | - | - |
| 1777495867 | 22.78° C | 80% | 1012.9 hPa | 0 mm | - | - | - |
| 1777495562 | 22.78° C | 80% | 1013.1 hPa | 0 mm | - | - | - |
| 1777495258 | 22.78° C | 78% | 1013 hPa | 0 mm | - | - | - |
| 1777494956 | 22.78° C | 79% | 1012.9 hPa | 0 mm | - | - | - |
| 1777494653 | 22.78° C | 79% | 1013 hPa | 0 mm | - | - | - |
| 1777494350 | 23.33° C | 78% | 1012.9 hPa | 0 mm | - | - | - |
| 1777494047 | 23.33° C | 77% | 1013 hPa | 0 mm | - | - | - |
| 1777493745 | 23.33° C | 76% | 1012.8 hPa | 0 mm | - | - | - |
| 1777493443 | 23.89° C | 75% | 1013 hPa | 0 mm | - | - | - |
| 1777493138 | 24.44° C | 74% | 1012.9 hPa | 0 mm | - | - | - |
| 1777492835 | 24.44° C | 72% | 1012.8 hPa | 0 mm | - | - | - |
| 1777492532 | 25° C | 74% | 1013.2 hPa | 0 mm | - | - | - |
| 1777492227 | 25° C | 73% | 1013.2 hPa | 0 mm | - | - | - |
| 1777491925 | 25° C | 70% | 1013.2 hPa | 0 mm | - | - | - |
* Rain latest hour (hover to see other rain measurements)
** Current wind speed in m/s (hover to see current wind gust speed)